View from above orbital plane
|
View from above satellite
|
Ground track
|
The orbit data is extracted from the following two-line orbital elements,
1 23088U 94023B 21101.79013007 -.00000341 00000-0 -15242-3 0 9998
2 23088 70.9996 234.9278 0002646 187.3999 172.7085 14.14682528392502
Epoch (UTC): | 11 April 2021 18:57:47 |
Eccentricity: | 0.0002646 |
inclination: | 70.9996° |
perigee height: | 841 km |
apogee height: | 845 km |
right ascension of ascending node: | 234.9278° |
argument of perigee: | 187.3999° |
revolutions per day: | 14.14682528 |
mean anomaly at epoch: | 172.7085° |
orbit number at epoch: | 39250 |
The dashed part of the orbit path shows where the satellite is in the earth's shadow,
|
|